| time (UTC) | temp F | wind direction | speed MPH | gust MPH | rain 1hr in | rain 24hr in | rain mn in | humidity % | barometer mb |
| 20260505211041 | 74 | 286 | 4.0 | 13.0 | 0.00 | 0.00 | 0.00 | 41 | 1012.4 |
| 20260505210538 | 74 | 266 | 6.0 | 13.0 | 0.00 | 0.00 | 0.00 | 44 | 1012.4 |
| 20260505210053 | 74 | 265 | 4.0 | 13.0 | 0.00 | 0.00 | 0.00 | 44 | 1012.5 |
| 20260505205538 | 74 | 297 | 7.0 | 13.0 | 0.00 | 0.00 | 0.00 | 45 | 1012.3 |
| 20260505205040 | 74 | 274 | 7.0 | 13.0 | 0.00 | 0.00 | 0.00 | 44 | 1012.2 |
| 20260505204557 | 74 | 289 | 7.0 | 13.0 | 0.00 | 0.00 | 0.00 | 46 | 1012.3 |
| 20260505204041 | 74 | 261 | 5.0 | 15.0 | 0.00 | 0.00 | 0.00 | 45 | 1012.3 |
| 20260505203540 | 74 | 259 | 6.0 | 15.0 | 0.00 | 0.00 | 0.00 | 45 | 1012.5 |
| 20260505203050 | 74 | 281 | 5.0 | 14.0 | 0.00 | 0.00 | 0.00 | 43 | 1012.5 |
| 20260505202539 | 74 | 248 | 8.0 | 14.0 | 0.00 | 0.00 | 0.00 | 42 | 1012.5 |
| 20260505202038 | 74 | 269 | 8.0 | 15.0 | 0.00 | 0.00 | 0.00 | 41 | 1012.4 |
| 20260505201550 | 74 | 296 | 8.0 | 15.0 | 0.00 | 0.00 | 0.00 | 44 | 1012.3 |
| 20260505201039 | 74 | 269 | 7.0 | 15.0 | 0.00 | 0.00 | 0.00 | 44 | 1012.2 |
| 20260505200538 | 73 | 266 | 7.0 | 12.0 | 0.00 | 0.00 | 0.00 | 46 | 1012.4 |
| 20260505200048 | 74 | 278 | 5.0 | 13.0 | 0.00 | 0.00 | 0.00 | 46 | 1012.4 |
| 20260505195538 | 73 | 254 | 8.0 | 13.0 | 0.00 | 0.00 | 0.00 | 46 | 1012.7 |
| 20260505195038 | 73 | 314 | 7.0 | 17.0 | 0.00 | 0.00 | 0.00 | 45 | 1012.8 |
| 20260505194558 | 73 | 261 | 9.0 | 17.0 | 0.00 | 0.00 | 0.00 | 46 | 1012.8 |
| 20260505194040 | 73 | 263 | 7.0 | 12.0 | 0.00 | 0.00 | 0.00 | 48 | 1012.7 |
| 20260505193539 | 73 | 342 | 7.0 | 11.0 | 0.00 | 0.00 | 0.00 | 46 | 1012.9 |
| 20260505193046 | 73 | 211 | 5.0 | 10.0 | 0.00 | 0.00 | 0.00 | 47 | 1012.9 |
| 20260505192538 | 73 | 227 | 3.0 | 10.0 | 0.00 | 0.00 | 0.00 | 47 | 1012.9 |
| 20260505192041 | 73 | 306 | 6.0 | 14.0 | 0.00 | 0.00 | 0.00 | 47 | 1012.9 |
| 20260505191543 | 73 | 300 | 8.0 | 16.0 | 0.00 | 0.00 | 0.00 | 48 | 1013.1 |
| 20260505191038 | 73 | 276 | 9.0 | 16.0 | 0.00 | 0.00 | 0.00 | 48 | 1013.3 |
| 20260505190539 | 73 | 345 | 7.0 | 14.0 | 0.00 | 0.00 | 0.00 | 47 | 1013.5 |
| 20260505190043 | 73 | 233 | 7.0 | 13.0 | 0.00 | 0.00 | 0.00 | 48 | 1013.6 |
| 20260505185539 | 73 | 266 | 7.0 | 15.0 | 0.00 | 0.00 | 0.00 | 47 | 1013.6 |
| 20260505185043 | 72 | 264 | 7.0 | 15.0 | 0.00 | 0.00 | 0.00 | 45 | 1013.8 |
| 20260505184552 | 72 | 222 | 6.0 | 14.0 | 0.00 | 0.00 | 0.00 | 45 | 1013.7 |
| 20260505184041 | 72 | 254 | 6.0 | 14.0 | 0.00 | 0.00 | 0.00 | 47 | 1013.7 |
| 20260505183543 | 72 | 254 | 6.0 | 14.0 | 0.00 | 0.00 | 0.00 | 46 | 1013.7 |
| 20260505183052 | 72 | 267 | 7.0 | 14.0 | 0.00 | 0.00 | 0.00 | 45 | 1013.9 |
| 20260505182538 | 72 | 269 | 6.0 | 14.0 | 0.00 | 0.00 | 0.00 | 44 | 1013.8 |
| 20260505182038 | 72 | 250 | 9.0 | 14.0 | 0.00 | 0.00 | 0.00 | 46 | 1013.9 |
| 20260505181544 | 72 | 238 | 7.0 | 12.0 | 0.00 | 0.00 | 0.00 | 43 | 1013.8 |
| 20260505181042 | 72 | 342 | 6.0 | 12.0 | 0.00 | 0.00 | 0.00 | 45 | 1014.0 |
| 20260505180538 | 72 | 254 | 6.0 | 12.0 | 0.00 | 0.00 | 0.00 | 46 | 1013.9 |
| 20260505180052 | 72 | 298 | 7.0 | 14.0 | 0.00 | 0.00 | 0.00 | 45 | 1014.0 |
| 20260505175541 | 72 | 285 | 7.0 | 18.0 | 0.00 | 0.00 | 0.00 | 44 | 1014.1 |
| 20260505175041 | 72 | 262 | 11.0 | 18.0 | 0.00 | 0.00 | 0.00 | 44 | 1014.4 |
| 20260505174551 | 72 | 269 | 11.0 | 16.0 | 0.00 | 0.00 | 0.00 | 44 | 1014.3 |
| 20260505174039 | 72 | 253 | 9.0 | 16.0 | 0.00 | 0.00 | 0.00 | 42 | 1014.4 |
| 20260505173539 | 72 | 257 | 5.0 | 14.0 | 0.00 | 0.00 | 0.00 | 43 | 1014.5 |
| 20260505173045 | 71 | 261 | 8.0 | 15.0 | 0.00 | 0.00 | 0.00 | 41 | 1014.6 |
| 20260505172540 | 71 | 287 | 7.0 | 15.0 | 0.00 | 0.00 | 0.00 | 42 | 1014.7 |
| 20260505172041 | 71 | 245 | 8.0 | 15.0 | 0.00 | 0.00 | 0.00 | 46 | 1014.8 |
| 20260505171549 | 71 | 239 | 6.0 | 12.0 | 0.00 | 0.00 | 0.00 | 43 | 1014.8 |
| 20260505171040 | 71 | 259 | 4.0 | 11.0 | 0.00 | 0.00 | 0.00 | 43 | 1014.9 |
| 20260505170541 | 71 | 259 | 6.0 | 11.0 | 0.00 | 0.00 | 0.00 | 40 | 1014.9 |
| 20260505170051 | 71 | 178 | 6.0 | 11.0 | 0.00 | 0.00 | 0.00 | 41 | 1014.9 |
| 20260505165540 | 71 | 268 | 6.0 | 14.0 | 0.00 | 0.00 | 0.00 | 41 | 1014.8 |
| 20260505165040 | 71 | 281 | 3.0 | 14.0 | 0.00 | 0.00 | 0.00 | 43 | 1014.6 |
| 20260505164558 | 70 | 278 | 5.0 | 14.0 | 0.00 | 0.00 | 0.00 | 42 | 1014.6 |
| 20260505164041 | 70 | 281 | 5.0 | 15.0 | 0.00 | 0.00 | 0.00 | 40 | 1014.6 |
| 20260505163540 | 70 | 332 | 6.0 | 15.0 | 0.00 | 0.00 | 0.00 | 38 | 1014.9 |
| 20260505163048 | 70 | 297 | 5.0 | 15.0 | 0.00 | 0.00 | 0.00 | 41 | 1014.9 |
| 20260505162539 | 69 | 257 | 6.0 | 16.0 | 0.00 | 0.00 | 0.00 | 43 | 1015.2 |
| 20260505162040 | 69 | 264 | 5.0 | 18.0 | 0.00 | 0.00 | 0.00 | 48 | 1015.2 |
| 20260505161555 | 69 | 265 | 11.0 | 19.0 | 0.00 | 0.00 | 0.00 | 50 | 1015.2 |
| 20260505161042 | 69 | 259 | 10.0 | 19.0 | 0.00 | 0.00 | 0.00 | 49 | 1015.2 |
| 20260505160540 | 69 | 241 | 9.0 | 16.0 | 0.00 | 0.00 | 0.00 | 51 | 1015.2 |
| 20260505153104 | 68 | 296 | 8.0 | 26.0 | 0.00 | 0.00 | 0.00 | 57 | 1015.2 |
| 20260505152543 | 67 | 240 | 13.0 | 26.0 | 0.00 | 0.00 | 0.00 | 58 | 1015.3 |
| 20260505152039 | 67 | 228 | 11.0 | 21.0 | 0.00 | 0.00 | 0.00 | 56 | 1015.3 |
| 20260505151553 | 67 | 240 | 7.0 | 14.0 | 0.00 | 0.00 | 0.00 | 59 | 1015.3 |
| 20260505151040 | 66 | 207 | 3.0 | 8.0 | 0.00 | 0.00 | 0.00 | 59 | 1015.4 |
| 20260505150540 | 66 | 259 | 1.0 | 4.0 | 0.00 | 0.00 | 0.00 | 60 | 1015.5 |
| 20260505140542 | 61 | 246 | 2.0 | 4.0 | 0.00 | 0.00 | 0.00 | 68 | 1015.4 |
| 20260505125038 | 55 | 64 | 0.0 | 3.0 | 0.00 | 0.00 | 0.00 | 82 | 1014.8 |
| 20260505124606 | 55 | 0 | 1.0 | 3.0 | 0.00 | 0.00 | 0.00 | 83 | 1014.7 |
| 20260505124038 | 55 | 77 | 1.0 | 3.0 | 0.00 | 0.00 | 0.00 | 84 | 1014.8 |
| 20260505123537 | 54 | 0 | 1.0 | 3.0 | 0.00 | 0.00 | 0.00 | 86 | 1014.7 |
| 20260505123058 | 54 | 0 | 0.0 | 3.0 | 0.00 | 0.00 | 0.00 | 87 | 1014.8 |
| 20260505122538 | 53 | 0 | 0.0 | 3.0 | 0.00 | 0.00 | 0.00 | 87 | 1014.9 |
| 20260505122038 | 53 | 0 | 1.0 | 3.0 | 0.00 | 0.00 | 0.00 | 87 | 1014.6 |
| 20260505121549 | 52 | 27 | 1.0 | 3.0 | 0.00 | 0.00 | 0.00 | 87 | 1014.6 |
| 20260505121039 | 52 | 0 | 0.0 | 2.0 | 0.00 | 0.00 | 0.00 | 88 | 1014.6 |
| 20260505120539 | 51 | 46 | 0.0 | 2.0 | 0.00 | 0.00 | 0.00 | 88 | 1014.7 |
| 20260505120100 | 50 | 0 | 0.0 | 2.0 | 0.00 | 0.00 | 0.00 | 88 | 1014.6 |
| 20260505115538 | 50 | 64 | 0.0 | 2.0 | 0.00 | 0.00 | 0.00 | 88 | 1014.6 |
| 20260505115041 | 50 | 64 | 0.0 | 2.0 | 0.00 | 0.00 | 0.00 | 88 | 1014.5 |
| 20260505114545 | 49 | 0 | 0.0 | 2.0 | 0.00 | 0.00 | 0.00 | 88 | 1014.5 |
| 20260505114038 | 49 | 0 | 0.0 | 2.0 | 0.00 | 0.00 | 0.00 | 88 | 1014.6 |
| 20260505113539 | 49 | 0 | 0.0 | 2.0 | 0.00 | 0.00 | 0.00 | 88 | 1014.4 |
| 20260505113110 | 49 | 64 | 0.0 | 2.0 | 0.00 | 0.00 | 0.00 | 88 | 1014.3 |
| 20260505112540 | 49 | 37 | 0.0 | 3.0 | 0.00 | 0.00 | 0.00 | 88 | 1014.3 |
| 20260505112040 | 49 | 0 | 0.0 | 4.0 | 0.00 | 0.00 | 0.00 | 88 | 1014.2 |
| 20260505111553 | 49 | 34 | 2.0 | 4.0 | 0.00 | 0.00 | 0.00 | 88 | 1014.2 |
| 20260505111043 | 49 | 28 | 2.0 | 4.0 | 0.00 | 0.00 | 0.00 | 88 | 1014.3 |
| 20260505110540 | 49 | 0 | 0.0 | 2.0 | 0.00 | 0.00 | 0.00 | 88 | 1014.1 |
| 20260505102040 | 50 | 0 | 0.0 | 3.0 | 0.00 | 0.00 | 0.00 | 87 | 1013.9 |
| 20260505101557 | 50 | 0 | 0.0 | 3.0 | 0.00 | 0.00 | 0.00 | 87 | 1013.8 |
| 20260505101043 | 50 | 75 | 1.0 | 3.0 | 0.00 | 0.00 | 0.00 | 87 | 1013.9 |
| 20260505100542 | 50 | 0 | 1.0 | 4.0 | 0.00 | 0.00 | 0.00 | 87 | 1014.0 |
| 20260505100050 | 50 | 5 | 0.0 | 5.0 | 0.00 | 0.00 | 0.00 | 86 | 1014.0 |
| 20260505095540 | 50 | 50 | 0.0 | 5.0 | 0.00 | 0.00 | 0.00 | 86 | 1013.9 |
| 20260505095041 | 50 | 0 | 2.0 | 5.0 | 0.00 | 0.00 | 0.00 | 86 | 1013.8 |
| 20260505094549 | 51 | 26 | 1.0 | 5.0 | 0.00 | 0.00 | 0.00 | 86 | 1013.9 |
| 20260505094040 | 51 | 0 | 1.0 | 5.0 | 0.00 | 0.00 | 0.00 | 85 | 1013.9 |
| 20260505093540 | 51 | 20 | 1.0 | 3.0 | 0.00 | 0.00 | 0.00 | 85 | 1014.0 |
| 20260505093103 | 51 | 109 | 1.0 | 3.0 | 0.00 | 0.00 | 0.00 | 86 | 1013.9 |
| 20260505092541 | 51 | 30 | 0.0 | 4.0 | 0.00 | 0.00 | 0.00 | 85 | 1014.0 |
| 20260505092041 | 51 | 0 | 1.0 | 4.0 | 0.00 | 0.00 | 0.00 | 85 | 1013.9 |
| 20260505091550 | 51 | 33 | 1.0 | 3.0 | 0.00 | 0.00 | 0.00 | 84 | 1013.9 |
| 20260505091041 | 51 | 0 | 1.0 | 3.0 | 0.00 | 0.00 | 0.00 | 84 | 1013.9 |
| 20260505090540 | 51 | 57 | 0.0 | 2.0 | 0.00 | 0.00 | 0.00 | 84 | 1013.9 |
| 20260505090050 | 51 | 0 | 0.0 | 2.0 | 0.00 | 0.00 | 0.00 | 84 | 1014.1 |
| 20260505085540 | 51 | 57 | 0.0 | 2.0 | 0.00 | 0.00 | 0.00 | 84 | 1014.0 |
| 20260505085040 | 52 | 0 | 0.0 | 2.0 | 0.00 | 0.00 | 0.00 | 84 | 1014.0 |
| 20260505084555 | 52 | 0 | 0.0 | 3.0 | 0.00 | 0.00 | 0.00 | 85 | 1013.9 |
| 20260505084040 | 52 | 0 | 1.0 | 3.0 | 0.00 | 0.00 | 0.00 | 84 | 1014.0 |
| 20260505083539 | 52 | 20 | 0.0 | 3.0 | 0.00 | 0.00 | 0.00 | 84 | 1013.9 |
| 20260505083054 | 52 | 75 | 1.0 | 3.0 | 0.00 | 0.00 | 0.00 | 84 | 1014.0 |
| 20260505082540 | 52 | 0 | 0.0 | 4.0 | 0.00 | 0.00 | 0.00 | 83 | 1014.1 |
| 20260505082040 | 52 | 42 | 2.0 | 4.0 | 0.00 | 0.00 | 0.00 | 83 | 1014.1 |
| 20260505081553 | 52 | 31 | 0.0 | 4.0 | 0.00 | 0.00 | 0.00 | 83 | 1014.1 |
| 20260505081039 | 53 | 0 | 1.0 | 4.0 | 0.00 | 0.00 | 0.00 | 83 | 1014.0 |
| 20260505080539 | 53 | 42 | 0.0 | 3.0 | 0.00 | 0.00 | 0.00 | 82 | 1014.0 |
| 20260505080106 | 53 | 0 | 0.0 | 2.0 | 0.00 | 0.00 | 0.00 | 80 | 1014.0 |
| 20260505075538 | 53 | 0 | 1.0 | 3.0 | 0.00 | 0.00 | 0.00 | 81 | 1014.0 |
| 20260505075038 | 53 | 71 | 0.0 | 3.0 | 0.00 | 0.00 | 0.00 | 81 | 1014.1 |
| 20260505074551 | 53 | 65 | 1.0 | 3.0 | 0.00 | 0.00 | 0.00 | 81 | 1014.0 |
| 20260505074038 | 54 | 96 | 0.0 | 3.0 | 0.00 | 0.00 | 0.00 | 80 | 1014.1 |
| 20260505073538 | 54 | 0 | 1.0 | 2.0 | 0.00 | 0.00 | 0.00 | 81 | 1014.0 |
| 20260505073051 | 54 | 78 | 0.0 | 2.0 | 0.00 | 0.00 | 0.00 | 80 | 1014.0 |
| 20260505072538 | 54 | 0 | 0.0 | 4.0 | 0.00 | 0.00 | 0.00 | 79 | 1013.9 |
| 20260505072038 | 54 | 96 | 1.0 | 4.0 | 0.00 | 0.00 | 0.00 | 80 | 1014.1 |
| 20260505071553 | 54 | 41 | 0.0 | 4.0 | 0.00 | 0.00 | 0.00 | 80 | 1014.2 |
| 20260505071038 | 55 | 105 | 1.0 | 3.0 | 0.00 | 0.00 | 0.00 | 79 | 1014.0 |
| 20260505070538 | 55 | 27 | 1.0 | 3.0 | 0.00 | 0.00 | 0.00 | 80 | 1014.1 |
| 20260505070052 | 55 | 0 | 1.0 | 3.0 | 0.00 | 0.00 | 0.00 | 78 | 1014.0 |
| 20260505065538 | 55 | 115 | 2.0 | 3.0 | 0.00 | 0.00 | 0.00 | 79 | 1013.8 |
| 20260505065038 | 55 | 24 | 1.0 | 3.0 | 0.00 | 0.00 | 0.00 | 79 | 1013.9 |
| 20260505064600 | 55 | 96 | 1.0 | 3.0 | 0.00 | 0.00 | 0.00 | 78 | 1013.9 |
| 20260505064038 | 55 | 107 | 0.0 | 3.0 | 0.00 | 0.00 | 0.00 | 78 | 1014.0 |
| 20260505063541 | 55 | 82 | 0.0 | 3.0 | 0.00 | 0.00 | 0.00 | 78 | 1013.9 |
| 20260505063055 | 56 | 49 | 1.0 | 4.0 | 0.00 | 0.00 | 0.00 | 79 | 1013.8 |
| 20260505062538 | 56 | 71 | 2.0 | 4.0 | 0.00 | 0.00 | 0.00 | 80 | 1013.9 |
| 20260505062039 | 56 | 26 | 1.0 | 3.0 | 0.00 | 0.00 | 0.00 | 78 | 1013.9 |
| 20260505061552 | 56 | 117 | 1.0 | 3.0 | 0.00 | 0.00 | 0.00 | 77 | 1014.0 |
| 20260505061038 | 56 | 102 | 1.0 | 3.0 | 0.00 | 0.00 | 0.00 | 77 | 1013.9 |
| 20260505060538 | 56 | 58 | 0.0 | 4.0 | 0.00 | 0.00 | 0.00 | 78 | 1014.1 |
| 20260505060054 | 57 | 0 | 0.0 | 4.0 | 0.00 | 0.00 | 0.00 | 78 | 1014.1 |
| 20260505055539 | 57 | 30 | 1.0 | 4.0 | 0.00 | 0.00 | 0.00 | 79 | 1014.1 |
| 20260505055038 | 57 | 39 | 1.0 | 4.0 | 0.00 | 0.00 | 0.00 | 77 | 1014.1 |
| 20260505054551 | 57 | 57 | 0.0 | 3.0 | 0.00 | 0.00 | 0.00 | 76 | 1014.2 |
| 20260505054040 | 57 | 0 | 0.0 | 3.0 | 0.00 | 0.00 | 0.00 | 76 | 1014.2 |
| 20260505053614 | 57 | 26 | 0.0 | 3.0 | 0.00 | 0.00 | 0.00 | 77 | 1014.3 |
| 20260505053111 | 57 | 0 | 0.0 | 3.0 | 0.00 | 0.00 | 0.00 | 76 | 1014.1 |
| 20260505052538 | 57 | 0 | 1.0 | 3.0 | 0.00 | 0.00 | 0.00 | 76 | 1014.3 |
| 20260505052041 | 57 | 93 | 1.0 | 3.0 | 0.00 | 0.00 | 0.00 | 77 | 1014.3 |
| 20260505051549 | 57 | 98 | 0.0 | 2.0 | 0.00 | 0.00 | 0.00 | 78 | 1014.3 |
| 20260505051038 | 57 | 98 | 1.0 | 3.0 | 0.00 | 0.00 | 0.00 | 78 | 1014.2 |
| 20260505050538 | 57 | 98 | 1.0 | 3.0 | 0.00 | 0.00 | 0.00 | 78 | 1014.3 |
| 20260505041546 | 57 | 65 | 0.0 | 2.0 | 0.00 | 0.00 | 0.00 | 78 | 1014.1 |
| 20260505041044 | 58 | 65 | 0.0 | 2.0 | 0.00 | 0.00 | 0.00 | 79 | 1014.2 |
| 20260505040541 | 58 | 90 | 0.0 | 2.0 | 0.00 | 0.00 | 0.00 | 79 | 1014.1 |
| 20260505040054 | 58 | 52 | 0.0 | 2.0 | 0.00 | 0.00 | 0.00 | 78 | 1014.1 |
| 20260505035540 | 58 | 0 | 0.0 | 2.0 | 0.00 | 0.00 | 0.00 | 78 | 1014.0 |
| 20260505035040 | 58 | 0 | 0.0 | 2.0 | 0.00 | 0.00 | 0.00 | 78 | 1014.1 |
| 20260505034612 | 58 | 109 | 0.0 | 2.0 | 0.00 | 0.00 | 0.00 | 77 | 1014.2 |
| 20260505034040 | 58 | 0 | 0.0 | 3.0 | 0.00 | 0.00 | 0.00 | 77 | 1014.2 |
| 20260505033540 | 58 | 109 | 1.0 | 3.0 | 0.00 | 0.00 | 0.00 | 76 | 1014.2 |
| 20260505033053 | 58 | 103 | 0.0 | 3.0 | 0.00 | 0.00 | 0.00 | 75 | 1014.2 |
| 20260505032540 | 58 | 103 | 1.0 | 3.0 | 0.00 | 0.00 | 0.00 | 75 | 1014.2 |
| 20260505032039 | 58 | 0 | 1.0 | 3.0 | 0.00 | 0.00 | 0.00 | 75 | 1014.2 |
| 20260505031546 | 58 | 80 | 1.0 | 2.0 | 0.00 | 0.00 | 0.00 | 75 | 1014.3 |
| 20260505031041 | 59 | 98 | 0.0 | 4.0 | 0.00 | 0.00 | 0.00 | 74 | 1014.3 |
| 20260505030541 | 59 | 77 | 1.0 | 4.0 | 0.00 | 0.00 | 0.00 | 75 | 1014.3 |
| 20260505030051 | 59 | 38 | 0.0 | 2.0 | 0.00 | 0.00 | 0.00 | 75 | 1014.2 |
| 20260505025542 | 59 | 0 | 0.0 | 2.0 | 0.00 | 0.00 | 0.00 | 74 | 1014.2 |
| 20260505025037 | 60 | 0 | 0.0 | 4.0 | 0.00 | 0.00 | 0.00 | 74 | 1014.3 |
| 20260505024544 | 60 | 49 | 2.0 | 4.0 | 0.00 | 0.00 | 0.00 | 74 | 1014.3 |
| 20260505024041 | 60 | 85 | 0.0 | 2.0 | 0.00 | 0.00 | 0.00 | 74 | 1014.4 |
| 20260505023541 | 60 | 88 | 1.0 | 3.0 | 0.00 | 0.00 | 0.00 | 74 | 1014.2 |
| 20260505023048 | 60 | 0 | 0.0 | 3.0 | 0.00 | 0.00 | 0.00 | 74 | 1014.2 |
| 20260505022543 | 61 | 0 | 0.0 | 3.0 | 0.00 | 0.00 | 0.00 | 74 | 1014.1 |
| 20260505022040 | 61 | 0 | 0.0 | 3.0 | 0.00 | 0.00 | 0.00 | 76 | 1014.2 |
| 20260505021554 | 61 | 0 | 0.0 | 3.0 | 0.00 | 0.00 | 0.00 | 75 | 1014.1 |
| 20260505021041 | 61 | 100 | 1.0 | 3.0 | 0.00 | 0.00 | 0.00 | 74 | 1014.1 |
| 20260505020540 | 61 | 100 | 0.0 | 2.0 | 0.00 | 0.00 | 0.00 | 74 | 1014.1 |
| 20260505020049 | 61 | 111 | 1.0 | 2.0 | 0.00 | 0.00 | 0.00 | 74 | 1014.0 |
| 20260505015541 | 62 | 80 | 1.0 | 2.0 | 0.00 | 0.00 | 0.00 | 74 | 1014.0 |
| 20260505015040 | 62 | 93 | 0.0 | 1.0 | 0.00 | 0.00 | 0.00 | 75 | 1014.0 |
| 20260505014546 | 62 | 0 | 0.0 | 1.0 | 0.00 | 0.00 | 0.00 | 73 | 1013.9 |
| 20260505014040 | 62 | 0 | 0.0 | 2.0 | 0.00 | 0.00 | 0.00 | 73 | 1013.9 |
| 20260505013540 | 62 | 93 | 0.0 | 2.0 | 0.00 | 0.00 | 0.00 | 73 | 1013.8 |
| 20260505013054 | 62 | 93 | 1.0 | 2.0 | 0.00 | 0.00 | 0.00 | 71 | 1013.7 |
| 20260505012540 | 63 | 93 | 1.0 | 2.0 | 0.00 | 0.00 | 0.00 | 71 | 1013.6 |
| 20260505012040 | 63 | 93 | 1.0 | 2.0 | 0.00 | 0.00 | 0.00 | 70 | 1013.6 |
| 20260505011607 | 63 | 0 | 0.0 | 1.0 | 0.00 | 0.00 | 0.00 | 69 | 1013.7 |
| 20260505011041 | 64 | 0 | 0.0 | 1.0 | 0.00 | 0.00 | 0.00 | 68 | 1013.6 |
| 20260505010540 | 64 | 53 | 0.0 | 1.0 | 0.00 | 0.00 | 0.00 | 68 | 1013.6 |
| 20260505010053 | 65 | 0 | 0.0 | 1.0 | 0.00 | 0.00 | 0.00 | 67 | 1013.5 |
| 20260505005540 | 65 | 0 | 0.0 | 1.0 | 0.00 | 0.00 | 0.00 | 67 | 1013.5 |
| 20260505005040 | 65 | 51 | 0.0 | 3.0 | 0.00 | 0.00 | 0.00 | 66 | 1013.6 |
| 20260505004547 | 66 | 0 | 0.0 | 3.0 | 0.00 | 0.00 | 0.00 | 65 | 1013.5 |
| 20260505004040 | 67 | 36 | 2.0 | 3.0 | 0.00 | 0.00 | 0.00 | 63 | 1013.4 |
| 20260505003539 | 68 | 42 | 0.0 | 2.0 | 0.00 | 0.00 | 0.00 | 59 | 1013.4 |
| 20260505003055 | 68 | 67 | 0.0 | 2.0 | 0.00 | 0.00 | 0.00 | 59 | 1013.4 |
| 20260505002540 | 69 | 0 | 0.0 | 2.0 | 0.00 | 0.00 | 0.00 | 60 | 1013.3 |
| 20260505002040 | 69 | 259 | 0.0 | 2.0 | 0.00 | 0.00 | 0.00 | 57 | 1013.3 |
| 20260505001558 | 69 | 259 | 0.0 | 5.0 | 0.00 | 0.00 | 0.00 | 57 | 1013.2 |
| 20260505001040 | 69 | 0 | 1.0 | 5.0 | 0.00 | 0.00 | 0.00 | 56 | 1013.2 |
| 20260505000540 | 70 | 228 | 1.0 | 6.0 | 0.00 | 0.00 | 0.00 | 56 | 1013.3 |
| 20260505000104 | 70 | 147 | 0.0 | 9.0 | 0.00 | 0.00 | 0.00 | 55 | 1013.2 |
| 20260504235540 | 70 | 217 | 4.0 | 9.0 | 0.00 | 0.00 | 0.00 | 55 | 1013.3 |
| 20260504235040 | 70 | 238 | 6.0 | 14.0 | 0.00 | 0.00 | 0.00 | 56 | 1013.2 |
| 20260504234544 | 70 | 238 | 6.0 | 14.0 | 0.00 | 0.00 | 0.00 | 55 | 1013.2 |
| 20260504234040 | 71 | 257 | 8.0 | 14.0 | 0.00 | 0.00 | 0.00 | 54 | 1013.2 |
| 20260504233540 | 71 | 248 | 11.0 | 14.0 | 0.00 | 0.00 | 0.00 | 55 | 1013.2 |
| 20260504233103 | 71 | 232 | 8.0 | 12.0 | 0.00 | 0.00 | 0.00 | 52 | 1013.3 |
| 20260504232540 | 71 | 216 | 8.0 | 12.0 | 0.00 | 0.00 | 0.00 | 55 | 1013.3 |
| 20260504232040 | 71 | 250 | 9.0 | 12.0 | 0.00 | 0.00 | 0.00 | 53 | 1013.3 |
| 20260504231555 | 71 | 261 | 8.0 | 11.0 | 0.00 | 0.00 | 0.00 | 50 | 1013.1 |
| 20260504231040 | 71 | 261 | 5.0 | 10.0 | 0.00 | 0.00 | 0.00 | 52 | 1013.2 |
| 20260504230541 | 71 | 260 | 7.0 | 10.0 | 0.00 | 0.00 | 0.00 | 53 | 1013.0 |
| 20260504230049 | 71 | 259 | 6.0 | 10.0 | 0.00 | 0.00 | 0.00 | 48 | 1013.1 |
| 20260504225541 | 71 | 230 | 5.0 | 11.0 | 0.00 | 0.00 | 0.00 | 50 | 1013.0 |
| 20260504225040 | 71 | 255 | 7.0 | 12.0 | 0.00 | 0.00 | 0.00 | 50 | 1013.0 |
| 20260504224544 | 71 | 254 | 8.0 | 12.0 | 0.00 | 0.00 | 0.00 | 50 | 1013.0 |
| 20260504224040 | 71 | 244 | 7.0 | 14.0 | 0.00 | 0.00 | 0.00 | 49 | 1013.1 |
| 20260504223540 | 71 | 257 | 10.0 | 15.0 | 0.00 | 0.00 | 0.00 | 48 | 1013.2 |
| 20260504223043 | 71 | 262 | 8.0 | 16.0 | 0.00 | 0.00 | 0.00 | 50 | 1013.2 |
| 20260504222544 | 71 | 246 | 11.0 | 16.0 | 0.00 | 0.00 | 0.00 | 52 | 1013.3 |
| 20260504222042 | 71 | 236 | 11.0 | 17.0 | 0.00 | 0.00 | 0.00 | 48 | 1013.4 |
| 20260504221546 | 71 | 258 | 12.0 | 17.0 | 0.00 | 0.00 | 0.00 | 51 | 1013.4 |
| 20260504221039 | 71 | 250 | 10.0 | 17.0 | 0.00 | 0.00 | 0.00 | 48 | 1013.3 |
| 20260504220538 | 72 | 259 | 10.0 | 17.0 | 0.00 | 0.00 | 0.00 | 51 | 1013.2 |
| 20260504220051 | 71 | 232 | 10.0 | 17.0 | 0.00 | 0.00 | 0.00 | 50 | 1013.3 |
| 20260504215538 | 72 | 257 | 10.0 | 15.0 | 0.00 | 0.00 | 0.00 | 53 | 1013.2 |
| 20260504215038 | 72 | 250 | 10.0 | 15.0 | 0.00 | 0.00 | 0.00 | 51 | 1013.2 |
| 20260504214549 | 72 | 254 | 9.0 | 15.0 | 0.00 | 0.00 | 0.00 | 46 | 1013.2 |
| 20260504214038 | 72 | 210 | 6.0 | 15.0 | 0.00 | 0.00 | 0.00 | 48 | 1013.1 |
| 20260504213538 | 72 | 234 | 8.0 | 17.0 | 0.00 | 0.00 | 0.00 | 47 | 1013.1 |
| 20260504213049 | 72 | 240 | 8.0 | 17.0 | 0.00 | 0.00 | 0.00 | 48 | 1013.0 |
| 20260504212539 | 72 | 266 | 9.0 | 17.0 | 0.00 | 0.00 | 0.00 | 49 | 1013.0 |
| 20260504212038 | 71 | 253 | 9.0 | 18.0 | 0.00 | 0.00 | 0.00 | 48 | 1013.0 |
| 20260504211546 | 71 | 254 | 11.0 | 18.0 | 0.00 | 0.00 | 0.00 | 49 | 1012.9 |